Location: Unspecified
(37.6100°N, 2.7800°W)
Time: 04:38:58
(UTC+00:00)

Envisat - Pass Details

Date: 22 October 2018
Orbit: 764 x 766 km, 98.2° (Epoch: 16 November)

Event Time Altitude Azimuth Distance (km) Brightness Sun altitude
Rises 18:38:13 0° 149° (SSE) 3,219 6.0 -15.2°
Reaches altitude 10° 18:40:36 10° 143° (SE) 2,297 5.1 -15.7°
Maximum altitude 18:45:24 45° 72° (ENE) 1,045 3.3 -16.6°
Drops below altitude 10° 18:50:12 10° 1° (N) 2,310 5.5 -17.6°
Sets 18:52:36 0° 355° (N) 3,240 6.3 -18.1°
